KB1DML Weather Reports


time (UTC)temp
C
wind
direction
speed
KPH
gust
KPH
rain 1hr
cm
rain 24hr
cm
rain mn
cm
humidity
%
barometer
mb
20260507180516 18 0 3.2 14.5 0.00 0.58 0.41 30 1004.6
20260507180016 18 0 3.2 11.3 0.00 0.58 0.41 31 1004.5
20260507175516 18 0 4.8 19.3 0.00 0.58 0.41 32 1004.6
20260507175037 18 0 4.8 22.5 0.00 0.58 0.41 31 1004.6
20260507174516 18 0 3.2 8.0 0.00 0.58 0.41 31 1004.5
20260507174015 18 0 6.4 20.9 0.00 0.58 0.41 31 1004.4
20260507173515 19 0 4.8 17.7 0.00 0.58 0.41 32 1004.6
20260507173017 18 0 4.8 20.9 0.00 0.58 0.41 32 1004.6
20260507172516 18 0 3.2 22.5 0.00 0.58 0.41 33 1004.6
20260507172016 18 0 4.8 14.5 0.00 0.58 0.41 33 1004.6
20260507171516 18 0 4.8 19.3 0.00 0.58 0.41 36 1004.6
20260507171016 18 0 4.8 16.1 0.00 0.58 0.41 37 1004.7
20260507170516 18 0 6.4 24.1 0.00 0.58 0.41 39 1004.5
20260507170016 18 0 3.2 17.7 0.00 0.58 0.41 37 1004.7
20260507165516 18 0 3.2 12.9 0.00 0.58 0.41 39 1004.9
20260507165015 18 0 4.8 17.7 0.00 0.58 0.41 39 1004.9
20260507164516 17 0 4.8 20.9 0.00 0.58 0.41 43 1004.9
20260507164037 17 0 3.2 14.5 0.00 0.58 0.41 42 1005.0
20260507163516 17 0 3.2 12.9 0.00 0.58 0.41 44 1005.1
20260507163016 17 0 3.2 8.0 0.00 0.58 0.41 44 1005.1
20260507162515 17 0 4.8 20.9 0.00 0.58 0.41 45 1005.1
20260507162016 17 0 4.8 20.9 0.00 0.58 0.41 44 1005.2
20260507161536 17 0 1.6 6.4 0.00 0.58 0.41 44 1005.2
20260507161038 17 0 4.8 16.1 0.00 0.58 0.41 44 1005.3
20260507160515 17 0 3.2 6.4 0.00 0.58 0.41 46 1005.4
20260507160015 17 0 3.2 6.4 0.00 0.58 0.41 47 1005.4
20260507155515 17 0 4.8 12.9 0.00 0.58 0.41 48 1005.4
20260507155015 17 0 1.6 14.5 0.00 0.58 0.41 49 1005.4
20260507154515 17 0 3.2 9.7 0.00 0.58 0.41 49 1005.5
20260507154015 17 225 3.2 12.9 0.00 0.58 0.41 48 1005.6
20260507153536 17 0 4.8 17.7 0.00 0.58 0.41 49 1005.6
20260507153015 17 0 6.4 16.1 0.00 0.58 0.41 49 1005.7
20260507152558 17 0 1.6 8.0 0.00 0.58 0.41 49 1005.7
20260507152015 17 0 3.2 9.7 0.00 0.58 0.41 50 1005.8
20260507151515 17 0 1.6 6.4 0.00 0.58 0.41 50 1005.8
20260507151035 16 225 1.6 11.3 0.00 0.58 0.41 50 1005.8
20260507150516 16 270 3.2 9.7 0.00 0.58 0.41 52 1005.9
20260507150036 16 225 3.2 11.3 0.00 0.58 0.41 52 1005.9
20260507145535 16 270 3.2 12.9 0.00 0.58 0.41 52 1006.0
20260507145037 16 0 6.4 17.7 0.00 0.58 0.41 52 1006.0
20260507144518 16 0 1.6 12.9 0.00 0.58 0.41 52 1006.1
20260507144035 16 0 1.6 6.4 0.00 0.58 0.41 52 1006.2
20260507143515 16 0 1.6 8.0 0.00 0.58 0.41 50 1006.3
20260507143055 16 0 3.2 12.9 0.00 0.58 0.41 50 1006.2
20260507142515 16 0 1.6 6.4 0.00 0.58 0.41 50 1006.2
20260507142016 16 0 1.6 6.4 0.00 0.58 0.41 51 1006.2
20260507141535 15 0 3.2 12.9 0.00 0.58 0.41 52 1006.3
20260507141037 15 0 4.8 16.1 0.00 0.58 0.41 53 1006.3
20260507140515 15 0 3.2 11.3 0.00 0.58 0.41 55 1006.2
20260507140015 15 225 3.2 8.0 0.00 0.58 0.41 55 1006.3
20260507135535 14 293 3.2 11.3 0.00 0.58 0.41 58 1006.2
20260507135015 14 315 3.2 11.3 0.00 0.58 0.41 59 1006.3
20260507134515 14 315 6.4 16.1 0.00 0.58 0.41 61 1006.3
20260507134016 13 315 4.8 17.7 0.00 0.58 0.41 62 1006.3
20260507133515 13 270 3.2 12.9 0.00 0.58 0.41 65 1006.3
20260507133015 13 293 4.8 17.7 0.00 0.58 0.41 68 1006.4
20260507132515 13 293 3.2 12.9 0.00 0.58 0.41 72 1006.3
20260507132015 13 225 3.2 8.0 0.00 0.58 0.41 71 1006.4
20260507131516 12 225 3.2 9.7 0.00 0.58 0.41 72 1006.5
20260507131035 12 293 1.6 6.4 0.00 0.58 0.41 77 1006.5
20260507130515 12 270 3.2 12.9 0.00 0.58 0.41 78 1006.5
20260507130035 12 225 1.6 6.4 0.00 0.58 0.41 81 1006.5
20260507125515 11 270 4.8 14.5 0.00 0.58 0.41 82 1006.6
20260507125015 11 270 1.6 8.0 0.00 0.58 0.41 84 1006.7
20260507124515 11 315 3.2 8.0 0.00 0.58 0.41 85 1006.8
20260507124035 11 293 3.2 16.1 0.00 0.58 0.41 87 1006.7
20260507123535 10 293 3.2 11.3 0.00 0.58 0.41 87 1006.8
20260507123015 10 270 1.6 8.0 0.00 0.58 0.41 88 1006.8
20260507122536 10 270 3.2 6.4 0.00 0.58 0.41 88 1006.7
20260507122015 10 293 3.2 14.5 0.00 0.58 0.41 88 1006.6
20260507121535 10 270 1.6 11.3 0.00 0.58 0.41 89 1006.5
20260507121015 10 270 1.6 4.8 0.00 0.58 0.41 89 1006.7
20260507120515 10 315 1.6 4.8 0.00 0.58 0.41 88 1006.5
20260507120015 10 270 1.6 6.4 0.00 0.58 0.41 88 1006.5
20260507115536 10 225 1.6 4.8 0.00 0.58 0.41 88 1006.5
20260507115017 10 225 1.6 8.0 0.00 0.58 0.41 88 1006.6
20260507114515 10 270 1.6 6.4 0.00 0.58 0.41 88 1006.5
20260507114015 10 225 1.6 4.8 0.00 0.58 0.41 88 1006.6
20260507113536 10 225 1.6 4.8 0.00 0.58 0.41 88 1006.6
20260507113015 10 225 1.6 3.2 0.00 0.58 0.41 88 1006.4
20260507112515 10 270 1.6 3.2 0.00 0.58 0.41 88 1006.3
20260507112035 10 225 1.6 6.4 0.00 0.58 0.41 88 1006.3
20260507111535 10 225 1.6 8.0 0.00 0.58 0.41 88 1006.4
20260507111055 10 225 1.6 4.8 0.00 0.58 0.41 88 1006.4
20260507110535 10 225 1.6 6.4 0.03 0.58 0.41 88 1006.3
20260507110036 10 225 1.6 3.2 0.03 0.58 0.41 88 1006.1
20260507105515 10 293 1.6 6.4 0.03 0.58 0.41 88 1006.2
20260507105015 10 315 1.6 4.8 0.03 0.58 0.41 88 1006.2
20260507104556 10 0.0 3.2 0.05 0.58 0.41 88 1006.4
20260507104016 10 0.0 1.6 0.08 0.58 0.41 88 1006.5
20260507103515 10 225 1.6 1.6 0.10 0.58 0.41 88 1006.5
20260507103015 10 225 1.6 3.2 0.13 0.58 0.41 88 1006.6
20260507102515 10 225 1.6 3.2 0.13 0.58 0.41 88 1006.4
20260507102015 10 0.0 3.2 0.15 0.58 0.41 88 1005.9
20260507101556 10 0.0 3.2 0.15 0.58 0.41 87 1006.0
20260507101015 10 0.0 3.2 0.20 0.58 0.41 87 1006.2
20260507100515 10 225 1.6 4.8 0.20 0.56 0.38 87 1006.3
20260507100036 10 0.0 3.2 0.20 0.56 0.38 87 1005.9
20260507095515 10 0.0 3.2 0.23 0.56 0.38 87 1005.8
20260507095015 10 0.0 3.2 0.25 0.56 0.38 87 1005.7
20260507094515 10 293 1.6 8.0 0.25 0.53 0.36 87 1005.8
20260507094015 10 270 1.6 4.8 0.25 0.51 0.33 87 1005.8
20260507093515 10 225 1.6 6.4 0.23 0.48 0.30 86 1006.0
20260507093015 10 270 1.6 9.7 0.20 0.46 0.28 86 1005.7
20260507092515 11 0 3.2 8.0 0.20 0.46 0.28 86 1005.5
20260507092015 11 0 3.2 11.3 0.20 0.43 0.25 86 1005.5
20260507091515 11 0 1.6 12.9 0.20 0.43 0.25 85 1005.5
20260507091055 11 270 1.6 16.1 0.18 0.38 0.20 85 1005.8
20260507090515 11 315 1.6 6.4 0.15 0.36 0.18 85 1005.9
20260507090015 11 270 1.6 8.0 0.15 0.36 0.18 85 1006.0
20260507085515 11 225 1.6 9.7 0.15 0.33 0.15 84 1005.9
20260507085015 11 225 1.6 4.8 0.13 0.30 0.13 84 1005.9
20260507084517 11 225 1.6 4.8 0.10 0.28 0.10 84 1005.9
20260507084017 11 225 1.6 4.8 0.08 0.25 0.08 83 1005.9
20260507083517 12 270 1.6 6.4 0.08 0.25 0.08 83 1005.6
20260507083017 12 270 1.6 6.4 0.08 0.25 0.08 83 1005.4
20260507082517 12 270 1.6 4.8 0.08 0.25 0.08 82 1005.5
20260507082037 12 225 1.6 6.4 0.05 0.23 0.05 82 1005.4
20260507081517 12 225 1.6 4.8 0.05 0.23 0.05 82 1005.3
20260507081017 12 315 3.2 16.1 0.03 0.20 0.03 82 1005.5
20260507080517 12 270 3.2 12.9 0.03 0.20 0.03 82 1005.9
20260507080017 13 225 1.6 8.0 0.03 0.20 0.03 83 1005.7
20260507075537 13 225 1.6 4.8 0.00 0.18 0.00 83 1005.3
20260507075017 13 270 1.6 8.0 0.00 0.18 0.00 82 1005.1
20260507074517 13 225 1.6 14.5 0.00 0.18 0.00 82 1005.3
20260507074017 13 225 3.2 8.0 0.00 0.18 0.00 82 1005.4
20260507073517 13 270 3.2 11.3 0.00 0.18 0.00 82 1005.2
20260507073017 13 293 3.2 14.5 0.00 0.18 0.00 82 1005.0
20260507072518 13 248 3.2 11.3 0.00 0.18 0.00 82 1004.7
20260507072018 13 225 1.6 6.4 0.00 0.18 0.00 82 1004.5
20260507071517 13 293 3.2 12.9 0.00 0.18 0.00 82 1004.5
20260507071017 13 248 1.6 6.4 0.00 0.18 0.00 82 1004.5
20260507070516 13 293 1.6 8.0 0.00 0.18 0.00 82 1004.6
20260507070016 13 0 3.2 12.9 0.00 0.18 0.00 82 1004.4
20260507065516 14 293 1.6 8.0 0.00 0.18 0.00 82 1004.4
20260507065017 14 270 1.6 6.4 0.00 0.18 0.00 82 1004.5
20260507064517 14 270 1.6 9.7 0.00 0.18 0.00 82 1004.6
20260507064016 14 270 3.2 14.5 0.00 0.18 0.00 81 1004.7
20260507063517 14 0 4.8 17.7 0.00 0.18 0.00 81 1004.7
20260507063017 14 0 3.2 12.9 0.00 0.18 0.00 81 1004.8
20260507062516 14 248 3.2 8.0 0.00 0.18 0.00 82 1004.6
20260507062037 15 293 3.2 8.0 0.00 0.18 0.00 83 1004.5
20260507061516 15 270 1.6 8.0 0.00 0.18 0.00 83 1004.4
20260507061016 15 293 3.2 9.7 0.00 0.18 0.00 83 1004.4
20260507060517 15 270 1.6 6.4 0.00 0.18 0.00 83 1004.5
20260507060017 15 0 3.2 12.9 0.00 0.18 0.00 83 1004.7
20260507055517 15 0 1.6 8.0 0.00 0.18 0.00 83 1004.6
20260507055016 15 0 1.6 4.8 0.00 0.18 0.00 83 1004.8
20260507054516 15 0 1.6 11.3 0.00 0.18 0.00 83 1004.8
20260507054016 15 225 1.6 6.4 0.00 0.18 0.00 84 1005.2
20260507053537 15 225 1.6 4.8 0.00 0.18 0.00 85 1005.0
20260507053017 15 225 1.6 6.4 0.00 0.18 0.00 85 1004.9
20260507052517 15 225 1.6 6.4 0.00 0.18 0.00 85 1004.9
20260507052017 15 225 1.6 6.4 0.00 0.18 0.00 85 1004.7
20260507051517 15 225 3.2 6.4 0.00 0.18 0.00 86 1004.5
20260507051016 15 270 3.2 12.9 0.00 0.18 0.00 86 1004.6
20260507050516 15 225 3.2 19.3 0.00 0.18 0.00 87 1004.7
20260507050016 15 225 3.2 16.1 0.00 0.18 0.00 88 1004.7
20260507045516 15 270 3.2 8.0 0.00 0.18 0.00 89 1004.8
20260507045017 15 225 1.6 6.4 0.00 0.18 0.00 89 1004.7
20260507044516 16 225 1.6 8.0 0.00 0.18 0.00 90 1004.6
20260507044036 16 225 1.6 8.0 0.00 0.18 0.00 90 1004.6
20260507043516 16 225 3.2 11.3 0.00 0.18 0.00 90 1004.5
20260507043019 16 225 1.6 6.4 0.00 0.18 0.00 90 1004.5
20260507042516 16 225 1.6 4.8 0.00 0.18 0.00 90 1004.4
20260507042018 16 225 1.6 3.2 0.00 0.18 0.00 90 1004.4
20260507041516 16 225 1.6 3.2 0.00 0.18 0.00 90 1004.5
20260507041017 16 225 1.6 6.4 0.00 0.18 0.00 90 1004.6
20260507040516 16 225 1.6 3.2 0.00 0.18 0.00 90 1004.8
20260507040016 16 225 1.6 6.4 0.00 0.18 0.18 90 1004.9
20260507035515 16 225 1.6 6.4 0.00 0.18 0.18 90 1004.8
20260507035014 16 180 1.6 11.3 0.00 0.18 0.18 90 1004.7
20260507034538 15 180 1.6 11.3 0.00 0.18 0.18 90 1004.7
20260507034037 15 225 1.6 8.0 0.00 0.18 0.18 90 1004.6
20260507033516 15 180 1.6 8.0 0.00 0.18 0.18 90 1004.5
20260507033019 15 180 3.2 11.3 0.00 0.18 0.18 90 1004.5
20260507032516 15 180 3.2 12.9 0.00 0.18 0.18 90 1004.4
20260507032017 15 225 3.2 12.9 0.00 0.18 0.18 90 1004.4
20260507031516 15 180 3.2 6.4 0.00 0.18 0.18 90 1004.3
20260507031017 15 180 3.2 12.9 0.00 0.18 0.18 90 1004.3
20260507030517 15 203 1.6 6.4 0.00 0.18 0.18 91 1004.1
20260507030017 15 225 1.6 8.0 0.00 0.18 0.18 91 1004.1
20260507025516 15 158 1.6 8.0 0.00 0.18 0.18 90 1004.1
20260507025017 15 158 3.2 8.0 0.00 0.18 0.18 90 1004.1
20260507024517 15 225 1.6 8.0 0.00 0.18 0.18 90 1004.2
20260507024037 15 203 3.2 11.3 0.00 0.18 0.18 90 1004.4
20260507023516 15 203 1.6 8.0 0.00 0.18 0.18 90 1004.4
20260507023017 15 203 1.6 6.4 0.00 0.18 0.18 90 1004.3
20260507022516 15 225 1.6 6.4 0.00 0.18 0.18 90 1004.3
20260507022016 15 225 1.6 8.0 0.00 0.18 0.18 90 1004.2
20260507021518 15 225 3.2 9.7 0.00 0.18 0.18 90 1004.2
20260507021036 15 180 3.2 9.7 0.00 0.18 0.18 90 1004.3
20260507020537 15 225 3.2 9.7 0.00 0.18 0.18 90 1004.4
20260507020018 15 203 3.2 14.5 0.00 0.18 0.18 90 1004.3
20260507015557 15 203 3.2 9.7 0.00 0.18 0.18 90 1004.3
20260507015016 15 158 3.2 17.7 0.00 0.18 0.18 90 1004.3
20260507014516 15 135 4.8 12.9 0.00 0.18 0.18 90 1004.3
20260507014036 15 158 4.8 12.9 0.00 0.18 0.18 90 1004.4
20260507013536 15 158 3.2 19.3 0.00 0.18 0.18 90 1004.5
20260507013016 15 203 3.2 17.7 0.00 0.18 0.18 90 1004.5
20260507012516 15 158 3.2 12.9 0.00 0.18 0.18 90 1004.5
20260507012016 15 225 1.6 12.9 0.00 0.18 0.18 90 1004.6
20260507011516 15 225 3.2 11.3 0.00 0.18 0.18 90 1004.6
20260507011039 15 225 3.2 12.9 0.00 0.18 0.18 90 1004.7
20260507010517 15 203 3.2 8.0 0.00 0.18 0.18 90 1004.8
20260507010016 15 135 4.8 17.7 0.00 0.18 0.18 90 1004.8
20260507005516 15 180 4.8 17.7 0.03 0.18 0.18 90 1004.8
20260507005016 15 203 4.8 12.9 0.03 0.18 0.18 90 1004.8
20260507004516 15 225 3.2 11.3 0.05 0.18 0.18 90 1004.8
20260507004017 15 180 4.8 12.9 0.05 0.18 0.18 90 1004.8
20260507003516 15 158 4.8 17.7 0.05 0.18 0.18 90 1004.7
20260507003016 15 135 4.8 20.9 0.05 0.18 0.18 89 1004.7
20260507002536 15 135 4.8 17.7 0.05 0.18 0.18 89 1004.7
20260507002016 15 158 6.4 20.9 0.05 0.18 0.18 89 1004.6
20260507001557 15 158 4.8 19.3 0.05 0.18 0.18 89 1004.6
20260507001017 15 180 4.8 14.5 0.05 0.18 0.18 89 1004.5
20260507000516 15 135 6.4 24.1 0.08 0.18 0.18 89 1004.4
20260507000016 15 158 3.2 11.3 0.08 0.18 0.18 89 1004.4
20260506235516 15 158 4.8 17.7 0.05 0.15 0.15 89 1004.4
20260506235016 15 158 4.8 16.1 0.05 0.15 0.15 89 1004.5
20260506234517 15 158 4.8 16.1 0.03 0.13 0.13 89 1004.4
20260506234036 15 0 9.7 22.5 0.03 0.13 0.13 89 1004.4
20260506233536 15 0 6.4 17.7 0.03 0.13 0.13 89 1004.4
20260506233016 15 0 8.0 19.3 0.03 0.13 0.13 89 1004.3
20260506232536 15 0 6.4 17.7 0.03 0.13 0.13 89 1004.2
20260506232037 15 0 8.0 24.1 0.03 0.13 0.13 89 1004.3
20260506231536 15 0 8.0 30.6 0.03 0.13 0.13 89 1004.3
20260506231017 15 0 8.0 22.5 0.03 0.13 0.13 88 1004.3
20260506230537 15 0 9.7 20.9 0.00 0.10 0.10 89 1004.3
20260506230016 15 0 9.7 20.9 0.00 0.10 0.10 88 1004.3
20260506225518 15 0 6.4 22.5 0.03 0.10 0.10 88 1004.3
20260506225016 15 0 6.4 22.5 0.03 0.10 0.10 88 1004.3
20260506224516 16 0 9.7 22.5 0.03 0.10 0.10 88 1004.4
20260506224017 16 0 8.0 19.3 0.03 0.10 0.10 88 1004.5
20260506223516 16 0 8.0 25.7 0.05 0.10 0.10 88 1004.6
20260506223016 16 0 8.0 19.3 0.05 0.10 0.10 88 1004.6
20260506222516 16 0 8.0 24.1 0.05 0.10 0.10 87 1004.8
20260506222016 16 0 11.3 27.4 0.05 0.10 0.10 87 1004.8
20260506221517 16 0 9.7 22.5 0.05 0.10 0.10 87 1004.7
20260506221016 16 0 11.3 22.5 0.05 0.10 0.10 87 1005.0
20260506220516 16 0 6.4 19.3 0.05 0.10 0.10 86 1004.9
20260506220036 16 0 8.0 19.3 0.05 0.10 0.10 86 1004.9
20260506215537 17 158 8.0 17.7 0.03 0.08 0.08 86 1005.0
20260506215016 17 135 4.8 19.3 0.03 0.08 0.08 85 1005.0
20260506214516 17 158 6.4 29.0 0.05 0.08 0.08 85 1005.1
20260506214016 17 158 6.4 29.0 0.05 0.08 0.08 85 1005.1
20260506213516 17 158 4.8 19.3 0.03 0.05 0.05 84 1005.2
20260506213037 17 158 6.4 25.7 0.03 0.05 0.05 84 1005.2
20260506212516 17 158 8.0 22.5 0.03 0.05 0.05 83 1005.1
20260506212018 17 158 8.0 19.3 0.03 0.05 0.05 83 1005.1
20260506211516 17 158 6.4 19.3 0.03 0.05 0.05 83 1005.1
20260506211017 17 203 6.4 20.9 0.03 0.05 0.05 82 1005.2
20260506210516 17 0 8.0 24.1 0.03 0.05 0.05 82 1005.3
20260506210016 17 0 4.8 20.9 0.03 0.05 0.05 82 1005.4
20260506205536 17 0 6.4 24.1 0.03 0.05 0.05 81 1005.3
20260506205016 17 0 8.0 19.3 0.03 0.05 0.05 81 1005.4
20260506204517 17 0 8.0 20.9 0.03 0.03 0.03 80 1005.5
20260506204016 17 0 8.0 29.0 0.03 0.03 0.03 79 1005.5
20260506203516 17 0 8.0 29.0 0.03 0.03 0.03 79 1005.5
20260506203036 17 0 8.0 27.4 0.03 0.03 0.03 78 1005.3
20260506202516 17 0 8.0 22.5 0.03 0.03 0.03 78 1005.4
20260506202016 18 0 11.3 35.4 0.03 0.03 0.03 77 1005.3
20260506201516 18 0 12.9 25.7 0.03 0.03 0.03 76 1005.2
20260506201036 18 0 8.0 27.4 0.03 0.03 0.03 76 1005.2
20260506200537 18 0 11.3 30.6 0.03 0.03 0.03 75 1005.1
20260506200016 18 0 9.7 24.1 0.03 0.03 0.03 74 1005.2
20260506195536 18 0 6.4 22.5 0.03 0.03 0.03 73 1005.2
20260506195017 19 0 6.4 17.7 0.03 0.03 0.03 72 1005.4
20260506194536 19 0 9.7 24.1 0.00 0.00 0.00 71 1005.5
20260506194016 19 0 9.7 24.1 0.00 0.00 0.00 70 1005.6
20260506193516 20 0 6.4 20.9 0.00 0.00 0.00 69 1005.7
20260506193016 20 0 6.4 20.9 0.00 0.00 0.00 68 1005.7
20260506192516 20 0 11.3 29.0 0.00 0.00 0.00 67 1005.7
20260506192036 20 0 8.0 25.7 0.00 0.00 0.00 67 1005.6
20260506191518 20 135 8.0 30.6 0.00 0.00 0.00 65 1005.5
20260506191016 21 158 8.0 22.5 0.00 0.00 0.00 63 1005.5
20260506190516 21 0 6.4 20.9 0.00 0.00 0.00 62 1005.4
20260506190016 21 0 6.4 16.1 0.00 0.00 0.00 61 1005.4
20260506185516 21 0 11.3 24.1 0.00 0.00 0.00 60 1005.5
20260506185019 21 0 6.4 22.5 0.00 0.00 0.00 60 1005.6
20260506184516 21 0 8.0 22.5 0.00 0.00 0.00 59 1005.6
20260506184016 21 0 9.7 32.2 0.00 0.00 0.00 59 1005.6
20260506183516 21 180 9.7 25.7 0.00 0.00 0.00 59 1005.6
20260506183016 21 158 8.0 29.0 0.00 0.00 0.00 58 1005.6
20260506182536 22 158 9.7 37.0 0.00 0.00 0.00 58 1005.6
20260506182016 22 0 9.7 27.4 0.00 0.00 0.00 57 1005.7
20260506181515 22 0 11.3 27.4 0.00 0.00 0.00 57 1005.7
20260506181037 22 0 9.7 25.7 0.00 0.00 0.00 56 1005.7